Location: Glencliff
(36.1226°N, 86.7183°W)
Time: 18:23:49
(UTC+00:00)

Cosmos 1386 Rocket - Pass Details

Date: 25 August 2019
Orbit: 930 x 1005 km, 83.0° (Epoch: 20 September)

Event Time Altitude Azimuth Distance (km) Brightness Sun altitude
Rises 02:05:28 0° 355° (N) 3,632 8.0 -19.4°
Reaches altitude 10° 02:07:57 10° 356° (N) 2,694 7.3 -19.9°
Maximum altitude 02:14:08 79° 84° (E) 992 4.4 -20.9°
Enters shadow 02:17:36 28° 167° (SSE) 1,729 5.4 -21.5°
